TimeEST,TemperatureF,Dew PointF,Humidity,Sea Level PressureIn,VisibilityMPH,Wind Direction,Wind SpeedMPH,Gust SpeedMPH,PrecipitationIn,Events,Conditions,WindDirDegrees,DateUTC
12:40 AM,5.0,1.4,85,30.02,5.0,South,3.5,-,0.00,Snow,Light Snow,170,2013-01-24 05:40:00
12:51 AM,3.9,1.0,88,30.09,6.0,Calm,Calm,-,N/A,Snow,Light Snow,0,2013-01-24 05:51:00
1:29 AM,8.6,5.0,85,30.02,8.0,Calm,Calm,-,0.00,Snow,Light Snow,0,2013-01-24 06:29:00
1:51 AM,8.1,3.0,80,30.10,8.0,SSW,3.5,-,0.00,Snow,Light Snow,200,2013-01-24 06:51:00
2:51 AM,10.0,7.0,87,30.12,5.0,Calm,Calm,-,0.00,Snow,Light Snow,0,2013-01-24 07:51:00
3:01 AM,10.4,6.8,85,30.05,2.0,Calm,Calm,-,0.00,Snow,Light Snow,0,2013-01-24 08:01:00
3:04 AM,10.4,6.8,85,30.05,1.5,Calm,Calm,-,0.00,Snow,Light Snow,0,2013-01-24 08:04:00
3:39 AM,12.2,8.6,85,30.06,1.0,West,5.8,-,0.01,Snow,Light Snow,280,2013-01-24 08:39:00
3:51 AM,12.0,8.1,84,30.14,1.2,WNW,5.8,-,0.01,Snow,Light Snow,290,2013-01-24 08:51:00
4:38 AM,12.2,8.6,85,30.10,1.8,WNW,5.8,-,0.02,Snow,Light Snow,300,2013-01-24 09:38:00
4:51 AM,12.9,9.0,84,30.18,1.5,WNW,6.9,-,0.02,Snow,Light Snow,300,2013-01-24 09:51:00
5:21 AM,12.2,8.6,85,30.13,3.0,NW,6.9,-,0.01,Snow,Light Snow,320,2013-01-24 10:21:00
5:51 AM,10.0,6.1,84,30.24,8.0,NW,3.5,-,0.01,Snow,Light Snow,310,2013-01-24 10:51:00
6:51 AM,8.1,5.0,87,30.28,9.0,West,3.5,-,N/A,,Scattered Clouds,270,2013-01-24 11:51:00
7:51 AM,7.0,3.0,84,30.33,9.0,West,4.6,-,N/A,,Scattered Clouds,270,2013-01-24 12:51:00
8:51 AM,10.9,6.1,81,30.37,10.0,West,4.6,-,N/A,,Mostly Cloudy,280,2013-01-24 13:51:00
9:08 AM,12.2,6.8,79,30.31,0.5,NW,6.9,-,0.00,Snow,Snow,310,2013-01-24 14:08:00
9:34 AM,12.2,8.6,85,30.33,0.8,NW,6.9,-,0.00,Snow,Light Snow,310,2013-01-24 14:34:00
9:51 AM,14.0,10.0,84,30.42,1.0,NW,6.9,-,N/A,Snow,Light Snow,320,2013-01-24 14:51:00
9:56 AM,14.0,10.4,86,30.35,7.0,NW,6.9,-,0.00,Snow,Light Snow,320,2013-01-24 14:56:00
10:51 AM,17.1,9.0,71,30.47,10.0,North,11.5,-,0.00,,Scattered Clouds,350,2013-01-24 15:51:00
11:51 AM,18.0,-0.9,44,30.51,10.0,NNW,12.7,-,N/A,,Scattered Clouds,340,2013-01-24 16:51:00
12:51 PM,19.0,1.0,46,30.50,10.0,NNW,11.5,20.7,N/A,,Scattered Clouds,340,2013-01-24 17:51:00
1:51 PM,18.0,1.0,48,30.50,10.0,NNW,16.1,21.9,N/A,,Scattered Clouds,340,2013-01-24 18:51:00
2:51 PM,17.1,1.0,50,30.53,10.0,NNW,17.3,-,N/A,,Scattered Clouds,340,2013-01-24 19:51:00
3:51 PM,17.1,1.9,52,30.54,10.0,North,12.7,-,N/A,,Mostly Cloudy,350,2013-01-24 20:51:00
4:51 PM,14.0,1.9,59,30.56,10.0,NNW,10.4,-,N/A,,Mostly Cloudy,330,2013-01-24 21:51:00
5:51 PM,12.9,1.9,62,30.57,10.0,NNW,8.1,-,N/A,,Scattered Clouds,330,2013-01-24 22:51:00
6:51 PM,9.0,1.0,70,30.59,10.0,Calm,Calm,-,N/A,,Scattered Clouds,0,2013-01-24 23:51:00
7:51 PM,8.1,1.9,76,30.59,10.0,Calm,Calm,-,N/A,,Scattered Clouds,0,2013-01-25 00:51:00
8:51 PM,7.0,1.9,80,30.56,10.0,Calm,Calm,-,N/A,,Mostly Cloudy,0,2013-01-25 01:51:00
9:51 PM,3.9,-0.9,80,30.56,10.0,Calm,Calm,-,N/A,,Overcast,0,2013-01-25 02:51:00
10:51 PM,3.9,-0.0,84,30.55,10.0,South,3.5,-,N/A,,Overcast,190,2013-01-25 03:51:00
11:51 PM,9.0,3.0,77,30.55,10.0,South,4.6,-,N/A,,Overcast,190,2013-01-25 04:51:00